Simultaneous Nadir Overpasses (SNOs) Predictions

Prediction of SNOs between METOP-B and TERRA Satellite Orbit:

Table of predicted SNOs for the next 14.0 days since TLE Epoch: 10/25/2025
Index Date (METOP-B) Time (METOP-B) Lat,Lon (METOP-B) SZA (METOP-B ) Date (TERRA) Time (TERRA) Lat,Lon (TERRA) SZA (TERRA ) Distance(km) Time Diff (sec)
1 10/25/2025 12:34:38 71.53, -26.46 84.24 10/25/2025 12:35:39 71.54, -26.41 84.23 2.03 61
2 10/25/2025 13:24:46 -73.29, 144.35 94.23 10/25/2025 13:24:26 -73.30, 144.40 94.23 1.60 20
3 10/28/2025 01:23:58 71.17, 140.60 84.79 10/28/2025 01:25:05 71.18, 140.63 84.77 1.08 67
4 10/28/2025 02:14:05 -72.99, -48.61 93.64 10/28/2025 02:13:51 -73.00, -48.58 93.64 1.06 14
5 10/30/2025 14:13:13 71.06, -51.89 85.52 10/30/2025 14:14:26 71.05, -51.94 85.49 2.14 73
6 10/30/2025 15:03:20 -72.88, 118.85 92.91 10/30/2025 15:03:12 -72.87, 118.80 92.91 1.74 8
7 11/02/2025 03:05:35 60.71, 104.44 78.00 11/02/2025 03:06:48 60.58, 105.26 77.65 47.01 73
8 11/02/2025 03:52:41 -72.45, -74.32 92.47 11/02/2025 03:52:38 -72.45, -74.35 92.47 0.94 3
9 11/04/2025 16:41:57 -72.22, 92.91 91.89 11/04/2025 16:41:59 -72.21, 92.85 91.90 2.40 2
10 11/04/2025 17:28:48 81.11, -50.83 98.27 11/04/2025 17:27:35 81.68, -51.88 98.63 65.74 73
11 11/07/2025 05:31:20 -71.67,-100.43 91.60 11/07/2025 05:31:26 -71.67,-100.44 91.61 0.36 6



Historial Predications of SNOs between METOP-B and TERRA
